Regional Weather Roundup
Issued by NWS Little Rock, AR

Home | Current Version | Previous Version | Graphics & Text | Print | Product List | Glossary On
Versions: 1 2 3 4 5 6 7 8 9 10 11 12 13 14 15 16 17 18 19 20 21 22 23 24 25 26 27 28 29 30 31 32 33 34 35 36 37 38 39 40 41 42 43 44 45 46 47 48 49
000
ASUS44 KLZK 181805
RWRLZK

WEATHER ROUNDUP FOR ARKANSAS
NATIONAL WEATHER SERVICE LITTLE ROCK AR
100 PM CDT THU SEP 18 2014

NOTE: "FAIR" INDICATES FEW OR NO CLOUDS BELOW 12,000 FEET WITH NO
SIGNIFICANT WEATHER AND/OR OBSTRUCTIONS TO VISIBILITY.

ARZ001-003-010-029-181900-
NORTHWEST ARKANSAS

CITY           SKY/WX    TMP DP  RH WIND       PRES   REMARKS
FAYETTEVILLE   PTSUNNY   76  64  66 E10       29.96S
6HR MIN TEMP:  64; 6HR MAX TEMP:  77; 6HR PCP:  0.01;

FORT SMITH     CLOUDY    78  64  61 SW8       29.93F
6HR MIN TEMP:  67; 6HR MAX TEMP:  78;

HARRISON       CLOUDY    70  65  84 E9        30.01F
6HR MIN TEMP:  62; 6HR MAX TEMP:  70; 6HR PCP: TRACE;

BENTONVILLE    PTSUNNY   75  64  69 E14       29.98S
6HR MIN TEMP:  63; 6HR MAX TEMP:  79; 6HR PCP:  0.30;

ROGERS         PTSUNNY   73  64  73 E15       29.98F
6HR MIN TEMP:  63; 6HR MAX TEMP:  76; 6HR PCP:  0.21;

SILOAM SPGS    CLOUDY    81  61  50 S3        29.96R
6HR MIN TEMP:  63; 6HR MAX TEMP:  82; 6HR PCP:  0.11;

HIGHFILL       PTSUNNY   77  65  66 E10       29.97R
6HR MIN TEMP:  63; 6HR MAX TEMP:  80; 6HR PCP:  0.24;

SPRINGDALE     PTSUNNY   75  64  69 E9G17     29.99S
$$

ARZ004-005-016-181900-
NORTH CENTRAL ARKANSAS

CITY           SKY/WX    TMP DP  RH WIND       PRES   REMARKS
BATESVILLE     CLOUDY    70  63  78 NE5       30.00F
6HR MIN TEMP:  61; 6HR MAX TEMP:  70;

FLIPPIN        CLOUDY    64  61  88 E7        30.00F
6HR MIN TEMP:  63; 6HR MAX TEMP:  64;

MTN HOME       CLOUDY    65  64  97 E6        30.01S FOG
6HR MIN TEMP:  62; 6HR MAX TEMP:  65; 6HR PCP: TRACE;

$$

ARZ040-041-181900-
WEST CENTRAL ARKANSAS

CITY           SKY/WX    TMP DP  RH WIND       PRES   REMARKS
MENA           PTSUNNY   82  63  51 CALM      29.97F
MOUNT IDA      PTSUNNY   84  64  50 CALM      29.94F HX  85
6HR MIN TEMP:  71; 6HR MAX TEMP:  84;

$$

ARZ009-017-025-026-028-181900-
NORTHEAST ARKANSAS

CITY           SKY/WX    TMP DP  RH WIND       PRES   REMARKS
CORNING          N/A     66  63  88 E8        30.02F
JONESBORO      CLOUDY    71  64  78 NE10      30.00R
6HR MIN TEMP:  63; 6HR MAX TEMP:  71; 6HR PCP:  0.16;

NEWPORT        CLOUDY    72  65  78 N14G23    30.00F
6HR MIN TEMP:  62; 6HR MAX TEMP:  72;

WALNUT RIDGE   CLOUDY    68  63  83 NE12      30.00F
6HR MIN TEMP:  63; 6HR MAX TEMP:  68;

BLYTHEVILLE    CLOUDY    71  65  81 NE9       30.01F
6HR MIN TEMP:  65; 6HR MAX TEMP:  71;

$$

ARZ022-023-033-042-044-181900-
CENTRAL ARKANSAS

CITY           SKY/WX    TMP DP  RH WIND       PRES   REMARKS
LITTLE ROCK    PTSUNNY   79  67  66 NE6       29.95F
6HR MIN TEMP:  67; 6HR MAX TEMP:  81;

N LITTLE ROCK  PTSUNNY   75  70  84 N7        29.95F
6HR MIN TEMP:  64; 6HR MAX TEMP:  76;

SEARCY         PTSUNNY   76  66  71 NE10      29.98F
HOT SPRINGS    PTSUNNY   83  69  62 SW3       29.94F HX  86
6HR MIN TEMP:  72; 6HR MAX TEMP:  83;

RUSSELLVILLE   PTSUNNY   78  68  71 VRB3      29.95F
6HR MIN TEMP:  70; 6HR MAX TEMP:  79;

CLINTON        CLOUDY    73  68  83 NE5       29.99S HAZE
$$

ARZ036-181900-
EAST ARKANSAS

CITY           SKY/WX    TMP DP  RH WIND       PRES   REMARKS
WEST MEMPHIS   PTSUNNY   81  69  67 E5        29.95S
6HR MIN TEMP:  64; 6HR MAX TEMP:  81;

$$

ARZ050-053-066-070-073-181900-
SOUTHWEST ARKANSAS

CITY           SKY/WX    TMP DP  RH WIND       PRES   REMARKS
ARKADELPHIA    FAIR      87  72  61 E7        29.92F HX  93
6HR MIN TEMP:  72; 6HR MAX TEMP:  87;

CAMDEN         PTSUNNY   84  72  65 NW3       29.92S HX  89
TEXARKANA      TSTM      71  71 100 N12       29.95R FOG
6HR MIN TEMP:  71; 6HR MAX TEMP:  84; 6HR PCP:  0.02;

EL DORADO      CLOUDY    85  71  63 S7        29.93F HX  90
6HR MIN TEMP:  70; 6HR MAX TEMP:  87;

DE QUEEN       MOSUNNY   77  71  82 E5        29.92F
6HR MIN TEMP:  71; 6HR MAX TEMP:  78; 6HR PCP:  0.13;

$$

ARZ056-057-069-181900-
SOUTHEAST ARKANSAS

CITY           SKY/WX    TMP DP  RH WIND       PRES   REMARKS
PINE BLUFF     MOSUNNY   81  70  69 CALM      29.93F
6HR MIN TEMP:  70; 6HR MAX TEMP:  81;

STUTTGART      PTSUNNY   81  70  69 N6        29.95F
6HR MIN TEMP:  66; 6HR MAX TEMP:  81;

MONTICELLO     PTSUNNY   86  70  58 W6        29.91F HX  90
6HR MIN TEMP:  71; 6HR MAX TEMP:  89;


$$




USA.gov is the U.S. government's official web portal to all federal, state and local government web resources and services.